Вернуться в каталог

MSU ALTAIR

АктивенНаукаSSO
NORAD 61779·PAYLOAD·🇷🇺 Russia

Запущен Nov 4, 2024 с Vostochny Cosmodrome

Loading…

Ближайшие Пролёты (ближайшие 24 часа)

TLE

СвежийSource: Space-Track

Эпоха: Sep 14, 2026, 14:02 UTC

1 61779U 24199AW  26257.58475249  .00008523  00000-0  22579-3 0  9997
2 61779  97.2873 126.3752 0011847 353.2513   6.8571 15.38527059150858

Отслеживайте MSU ALTAIR в реальном времени с AllMySat

Download on the App Store